Location: Cuiabá
(15.6014°S, 56.0979°W)
Time: 02:50:31
(UTC-04:00)

Hubble Space Telescope - Pass Details

Date: 03 December 2022
Orbit: 529 x 532 km, 28.5° (Epoch: 28 January)

Event Time Altitude Azimuth Distance (km) Brightness Sun altitude
Rises 20:28:00 0° 243° (WSW) 2,676 5.4 -30.7°
Reaches altitude 10° 20:31:14 10° 217° (SW) 1,787 4.3 -31.3°
Maximum altitude 20:33:26 14° 185° (S) 1,552 3.5 -31.8°
Enters shadow 20:33:27 14° 185° (S) 1,552 3.5 -31.8°
